Regional Weather Roundup
Issued by NWS

Home | Current Version | Previous Version | Graphics & Text | Print | Product List | Glossary On
Versions: 1 2 3 4 5 6 7 8 9 10 11 12 13 14 15 16 17 18 19 20 21 22 23 24 25 26 27 28 29 30 31 32 33 34 35 36 37 38 39 40 41 42 43 44 45 46 47 48 49 50
000
ASUS43 KFSD 011902
RWRSD

WEATHER ROUNDUP FOR SOUTH DAKOTA
NATIONAL WEATHER SERVICE SIOUX FALLS SD
200 PM CDT FRI AUG 01 2014

NOTE: "FAIR" INDICATES FEW OR NO CLOUDS BELOW 12,000 FEET WITH NO
SIGNIFICANT WEATHER AND/OR OBSTRUCTIONS TO VISIBILITY.


SDZ001>005-009-010-012>017-012000-
NORTHWEST AND NORTH CENTRAL SOUTH DAKOTA

CITY           SKY/WX    TMP DP  RH WIND       PRES   REMARKS
BUFFALO          N/A     87  50  27 N7        30.02S
FAITH            N/A     89  49  25 E6        30.05F
MOBRIDGE       SUNNY     87  59  38 SE13      30.03F
$$

SDZ012>016-024>037-041>051-057-063-072>074-012000-
SOUTHWEST AND SOUTH CENTRAL SOUTH DAKOTA

CITY           SKY/WX    TMP DP  RH WIND       PRES   REMARKS
RAPID CTY ARPT MOSUNNY   81  53  37 S15G23    30.10S
PIERRE         SUNNY     90  58  33 SE17      30.03F
CUSTER         PTSUNNY   80  35  19 NW12G20   30.26S
ELLSWORTH AFB  MOSUNNY   86  50  29 S15G21    30.09S
PHILIP         SUNNY     94  46  19 CALM      30.03F
PINE RIDGE     SUNNY     88  47  24 CALM      30.12F
WINNER         FAIR      89  52  28 SE9       30.08F
$$

SDZ004>011-016>023-039-040-012000-
NORTHEAST SOUTH DAKOTA

CITY           SKY/WX    TMP DP  RH WIND       PRES   REMARKS
ABERDEEN       SUNNY     82  55  39 MISG      30.08F
WATERTOWN      MOSUNNY   81  55  40 VRB5      30.10F
SISSETON         N/A     83  61  47 NW3       30.07F
$$

SDZ017-020-022-023-036>040-048>070-012000-
SOUTHEAST SOUTH DAKOTA

CITY           SKY/WX    TMP DP  RH WIND       PRES   REMARKS
SIOUX FALLS    MOSUNNY   81  59  47 N8        30.12S
HURON          SUNNY     83  58  42 VRB7      30.08F
CHAMBERLAIN    SUNNY     86  57  37 SE8       30.07F
MITCHELL       SUNNY     81  60  48 SE8       30.10F
YANKTON        SUNNY     79  57  47 E7        30.12S
$$

ABBREVIATIONS USED IN REMARKS
   TC - TEMPERATURE IN CELSIUS
  WCI - WIND CHILL INDEX
   HX - HEAT INDEX
  VSB - VISIBILITY



USA.gov is the U.S. government's official web portal to all federal, state and local government web resources and services.